Location: ???????
(55.3754°N, 39.3545°E)
Time: 21:03:03
(UTC+00:00)

Nadezhda 4 Rocket - Pass Details

Date: 14 April 2026
Orbit: 948 x 992 km, 82.9° (Epoch: 11 May)

Event Time Altitude Azimuth Distance (km) Brightness Sun altitude
Rises 22:08:31 0° 348° (NNW) 3,678 8.1 -24.3°
Reaches altitude 10° 22:11:04 10° 351° (N) 2,721 7.2 -24.2°
Maximum altitude 22:17:17 71° 76° (ENE) 1,017 4.1 -24.0°
Enters shadow 22:19:35 40° 148° (SSE) 1,383 4.4 -23.9°
